Weather in Maden

Turkey     38°23′31″N   39°40′18″E
temp.,
°C
wind,
m/s
gust,
m/s
humid.,
%
clouds,
%
prec.,
mm/h
press.,
hPa
HPBL,
m
18 may, tue
tue1800:00+14nw33455 0.0 101128
03:00+13nw33495 0.0 101128
06:00+13nw33501 0.0 101235
09:00+19nw35315 0.0 10131183
12:00+22wnw46274 0.0 10122203
15:00+24wnw24235 0.0 10102578
18:00+24w12230 0.0 10102235
21:00+17sw11390 0.0 101111
19 may, wed
wed1900:00+16se22415 0.0 101111
03:00+14ese11470 0.0 101211
06:00+15e11500 0.0 101211
09:00+22nw23322 0.0 10121145
12:00+24nw54280 0.0 10121943
15:00+27wnw57223 0.0 10103275
18:00+24wnw57221 0.0 1011930
21:00+19nw33270 0.0 101319
20 may, thu
thu2000:00+17nw22260 0.0 101314
03:00+16nnw33290 0.0 101318
06:00+16nnw32350 0.0 101425
09:00+22n22240 0.0 1014452
12:00+27sse23210 0.0 10122213
15:00+28s46190 0.0 10112541
18:00+28ssw46210 0.0 1010655
21:00+21se22350 0.0 101212
21 may, fri
fri2100:00+18e22390 0.0 101211
03:00+17ese22420 0.0 101211
06:00+18ese22410 0.0 101311
09:00+25se23230 0.0 1012634
12:00+28sse58200 0.0 10111756
15:00+31s48170 0.0 10093187
18:00+29s3422100 0.0 1007129
21:00+22ese2229100 0.0 100813
22 may, sat
sat2200:00+21se2234100 0.0 100922
03:00+19nnw2239100 0.1 100915
06:00+20ne3339100 0.1 100951
09:00+25sse572810 0.1 10071213
12:00+27se61127100 0.0 10062408
15:00+29s12142152 0.0 10033561
18:00+25ssw611325 0.0 1004996
21:00+16se126054 0.4 100714